This is the latest recevied weather packets stored in our database for station/object SP1BMW-13. If no packets are shown the sender has not sent any weather packets the latest 10 day(s).
| Time | Temp. | Humidity | Pressure | Rain* | Wind** | Luminosity | Snow |
|---|---|---|---|---|---|---|---|
| 1788019053 | 23.33° C | 49% | 1009.7 hPa | 0 mm | 0.89 m/s, 256° | 149 W/m² | - |
| 1788018992 | 23.33° C | 49% | 1009.9 hPa | 0 mm | 1.34 m/s, 276° | 155 W/m² | - |
| 1788018933 | 23.33° C | 49% | 1010 hPa | 0 mm | 1.34 m/s, 297° | 165 W/m² | - |
| 1788018872 | 23.33° C | 49% | 1009.9 hPa | 0 mm | 1.79 m/s, 162° | 171 W/m² | - |
| 1788018813 | 23.33° C | 49% | 1009.9 hPa | 0 mm | 1.79 m/s, 218° | 156 W/m² | - |
| 1788018752 | 23.33° C | 50% | 1009.9 hPa | 0 mm | 1.34 m/s, 214° | 136 W/m² | - |
| 1788018692 | 23.33° C | 51% | 1009.9 hPa | 0 mm | 0.45 m/s, 318° | 110 W/m² | - |
| 1788018635 | 23.33° C | 50% | 1009.8 hPa | 0 mm | 0.89 m/s, 74° | 95 W/m² | - |
| 1788018573 | 23.33° C | 50% | 1009.8 hPa | 0 mm | 0.89 m/s, 282° | 91 W/m² | - |
| 1788018522 | 23.33° C | 51% | 1009.7 hPa | 0 mm | 0.45 m/s, 242° | 94 W/m² | - |
| 1788018458 | 23.33° C | 51% | 1009.7 hPa | 0 mm | 0.45 m/s, 264° | 97 W/m² | - |
| 1788018393 | 23.33° C | 51% | 1009.7 hPa | 0 mm | 0.45 m/s, 290° | 109 W/m² | - |
| 1788018332 | 23.89° C | 50% | 1009.7 hPa | 0 mm | 0.89 m/s, 188° | 120 W/m² | - |
| 1788018274 | 23.89° C | 51% | 1009.8 hPa | 0 mm | 1.34 m/s, 251° | 127 W/m² | - |
| 1788018212 | 23.89° C | 51% | 1009.7 hPa | 0 mm | 1.34 m/s, 233° | 130 W/m² | - |
| 1788018152 | 23.33° C | 50% | 1009.8 hPa | 0 mm | 0.89 m/s, 235° | 128 W/m² | - |
| 1788018092 | 23.33° C | 50% | 1009.8 hPa | 0 mm | 1.34 m/s, 280° | 133 W/m² | - |
| 1788018033 | 23.33° C | 50% | 1009.8 hPa | 0 mm | 0.89 m/s, 227° | 137 W/m² | - |
| 1788017972 | 23.33° C | 50% | 1009.7 hPa | 0 mm | 1.79 m/s, 253° | 146 W/m² | - |
| 1788017912 | 23.33° C | 50% | 1009.6 hPa | 0 mm | 1.79 m/s, 318° | 155 W/m² | - |
| 1788017857 | 23.33° C | 50% | 1009.6 hPa | 0 mm | 1.79 m/s, 211° | 159 W/m² | - |
| 1788017792 | 23.33° C | 50% | 1009.8 hPa | 0 mm | 1.79 m/s, 17° | 157 W/m² | - |
| 1788017732 | 23.89° C | 51% | 1009.7 hPa | 0 mm | 0.45 m/s, 300° | 145 W/m² | - |
| 1788017672 | 23.89° C | 51% | 1009.9 hPa | 0 mm | 3.13 m/s, 268° | 130 W/m² | - |
| 1788017612 | 23.89° C | 50% | 1009.7 hPa | 0 mm | 1.79 m/s, 318° | 113 W/m² | - |
* Rain latest hour (hover to see other rain measurements)
** Current wind speed in m/s (hover to see current wind gust speed)